Waarnemingen

Advertentie
Mijn weer
St-Girons, Frankrijk (7627): temperatuur & dauwpunt: 15.01.2017 18:00:00 - 21.01.2017 18:00:00 (CET)St-Girons, Frankrijk (7627): temperatuur 5cm: 15.01.2017 18:00:00 - 21.01.2017 18:00:00 (CET)St-Girons, Frankrijk (7627): temperatuur -20cm & temperatuur -100cm: 15.01.2017 18:00:00 - 21.01.2017 18:00:00 (CET)St-Girons, Frankrijk (7627): windsnelheid & windstoten: 15.01.2017 18:00:00 - 21.01.2017 18:00:00 (CET)St-Girons, Frankrijk (7627): windrichting: 15.01.2017 18:00:00 - 21.01.2017 18:00:00 (CET)St-Girons, Frankrijk (7627): luchtdruk: 15.01.2017 18:00:00 - 21.01.2017 18:00:00 (CET)St-Girons, Frankrijk (7627): zicht: 15.01.2017 18:00:00 - 21.01.2017 18:00:00 (CET)St-Girons, Frankrijk (7627): Zonneschijnduur: 15.01.2017 18:00:00 - 21.01.2017 18:00:00 (CET)St-Girons, Frankrijk (7627): neerslag: 15.01.2017 18:00:00 - 21.01.2017 18:00:00 (CET)
Datum & Tijd tt [°C] td [°C] tt 5cm [°C] tt -20cm [°C] tt -100cm [°C] ff [km/u] ff [kn] fx [km/u] fx [kn] dd ppp [hPa] vv [km] sd [min] rr [mm]
21.01.2017 18:00:00 4,7 0,3 0,4 3,4 7,1 3 1 4 2 WNW 1021,7 20 0 0,0
21.01.2017 17:00:00 7,0 0,4 5,2 3,4 7,1 0 0 4 2 N 1021,0 20 0 0,0
21.01.2017 16:00:00 8,5 0,2 9,6 3,4 7,2 4 2 7 4 ZZW 1020,6 20 0 0,0
21.01.2017 15:00:00 9,3 -0,3 11,9 3,4 7,1 0 0 8 5 N 1020,4 20 48 0,0
21.01.2017 14:00:00 8,6 -0,5 11,0 3,4 7,1 5 3 14 8 ZZO 1020,7 20 56 0,0
21.01.2017 13:00:00 8,0 -2,1 9,3 3,4 7,1 9 5 16 9 ZO 1021,5 20 53 0,0
21.01.2017 12:00:00 5,7 -2,7 7,8 3,4 7,2 8 5 18 10 OZO 1022,6 20 51 0,0
21.01.2017 11:00:00 4,8 -2,5 0,8 3,5 7,1 3 1 19 10 OZO 1023,2 20 46 0,0
21.01.2017 10:00:00 0,6 -3,9 -4,6 3,5 7,1 15 8 26 14 ZO 1024,2 20 10 0,0
21.01.2017 09:00:00 -2,9 -5,2 -5,2 3,5 7,2 3 2 18 10 ZZO 1024,3 20 0 0,0
21.01.2017 08:00:00 -2,9 -5,1 -5,7 3,5 7,2 5 3 16 9 ZZW 1024,3 20 0 0,0
21.01.2017 07:00:00 -2,9 -6,5 -4,1 3,5 7,2 7 4 26 14 ZZO 1024,3 20 0 0,0
21.01.2017 06:00:00 -1,3 -4,5 -6,4 3,5 7,2 13 7 26 14 ZZO 1024,2 20 0 0,0
21.01.2017 05:00:00 -3,9 -6,1 -6,4 3,5 7,2 3 2 17 9 Z 1024,9 20 0 0,0
21.01.2017 04:00:00 -2,6 -4,8 -6,4 3,6 7,2 8 5 18 10 Z 1025,0 20 0 0,0
21.01.2017 03:00:00 -3,5 -5,5 -6,0 3,6 7,2 3 1 9 5 ZW 1025,2 20 0 0,0
21.01.2017 02:00:00 -0,8 -4,3 -5,3 3,6 7,2 9 5 20 11 ZZO 1024,6 20 0 0,0
21.01.2017 01:00:00 -2,9 -4,2 -5,9 3,5 7,2 9 5 14 7 ZZW 1025,3 20 0 0,0
21.01.2017 00:00:00 -2,5 -4,4 -5,3 3,6 7,2 4 2 21 11 WNW 1025,7 20 0 0,0
20.01.2017 23:00:00 0,7 -2,7 -2,4 3,6 7,2 14 8 25 13 ZO 1025,4 20 0 0,0
20.01.2017 22:00:00 0,8 -2,4 -5,1 3,6 7,2 17 9 27 14 ZZO 1025,4 20 0 0,0
20.01.2017 21:00:00 -1,3 -2,3 -4,7 3,5 7,2 2 1 6 3 N 1025,6 19 0 0,0
20.01.2017 20:00:00 -0,6 -3,3 -3,8 3,5 7,2 0 0 14 7 N 1025,4 20 0 0,0
20.01.2017 19:00:00 1,0 -1,9 -3,0 3,5 7,3 10 5 13 7 ZZO 1024,6 20 0 0,0
20.01.2017 18:00:00 2,8 -0,7 -1,4 3,5 7,3 3 2 9 5 W 1023,8 20 6 0,0
20.01.2017 17:00:00 7,6 0,6 9,4 3,5 7,2 6 3 11 6 O 1022,7 20 60 0,0
20.01.2017 16:00:00 9,6 -2,7 13,4 3,5 7,2 3 1 9 5 ZZW 1022,4 20 60 0,0
20.01.2017 15:00:00 8,2 -2,5 12,8 3,5 7,2 4 2 9 5 Z 1022,8 20 60 0,0
20.01.2017 14:00:00 7,1 -1,8 12,2 3,6 7,3 3 1 7 4 OZO 1023,5 19 60 0,0
20.01.2017 13:00:00 4,5 -2,2 10,4 3,6 7,3 2 1 6 4 N 1024,8 20 60 0,0
20.01.2017 12:00:00 1,6 -1,7 -1,0 3,6 7,3 0 0 10 6 N 1026,1 20 55 0,0
20.01.2017 11:00:00 -3,3 -4,3 -4,4 3,6 7,3 0 0 6 3 N 1027,3 19 0 0,0
20.01.2017 10:00:00 -5,6 -6,4 -7,6 3,6 7,3 3 2 5 3 W 1027,4 12 0 0,0
20.01.2017 09:00:00 -7,2 -8,1 -9,3 3,7 7,3 0 0 4 2 N 1027,4 11 0 0,0
20.01.2017 08:00:00 -7,0 -8,1 -8,7 3,7 7,3 0 0 5 3 N 1027,1 18 0 0,0
20.01.2017 07:00:00 -7,7 -8,6 -9,1 3,7 7,3 2 1 5 3 WNW 1027,2 17 0 0,0
20.01.2017 06:00:00 -7,7 -8,9 -9,6 3,8 7,4 0 0 8 4 N 1027,3 11 0 0,0
20.01.2017 05:00:00 -7,3 -8,4 -9,8 3,8 7,4 0 0 7 4 N 1027,6 13 0 0,0
20.01.2017 04:00:00 -7,4 -8,5 -9,4 3,8 7,4 4 2 6 3 WZW 1027,8 13 0 0,0
20.01.2017 03:00:00 -7,2 -8,3 -9,1 3,8 7,4 0 0 6 3 N 1028,1 14 0 0,0
20.01.2017 02:00:00 -6,7 -8,7 -8,6 3,8 7,4 0 0 11 6 N 1028,3 13 0 0,0
20.01.2017 01:00:00 -6,1 -7,2 -8,7 3,8 7,4 0 0 10 5 N 1028,4 11 0 0,0
20.01.2017 00:00:00 -4,8 -6,0 -8,0 3,9 7,4 7 4 11 6 ZO 1028,4 15 0 0,0
19.01.2017 23:00:00 -5,3 -6,4 -8,1 3,9 7,4 2 1 5 3 OZO 1029,1 9 0 0,0
19.01.2017 22:00:00 -5,0 -6,2 -8,1 3,9 7,4 2 1 6 3 Z 1029,3 9 0 0,0
19.01.2017 21:00:00 -4,4 -5,8 -7,7 3,9 7,4 0 0 4 2 N 1028,9 11 0 0,0
19.01.2017 20:00:00 -4,1 -6,1 -7,0 3,9 7,4 2 1 6 3 Z 1028,6 14 0 0,0
19.01.2017 19:00:00 -2,7 -5,5 -6,3 3,9 7,4 0 0 7 4 N 1028,4 18 0 0,0
19.01.2017 18:00:00 -1,5 -5,5 -4,7 3,9 7,4 5 3 10 6 WNW 1027,8 20 4 0,0
19.01.2017 17:00:00 2,0 -5,6 4,3 3,8 7,4 3 2 7 4 NNW 1026,7 20 60 0,0
19.01.2017 16:00:00 2,8 -4,9 7,1 3,8 7,4 0 0 10 5 N 1026,4 19 60 0,0
19.01.2017 15:00:00 2,8 -4,9 7,5 3,8 7,4 0 0 7 4 N 1026,4 18 60 0,0
19.01.2017 14:00:00 0,6 -5,9 6,9 3,8 7,4 4 2 9 5 N 1027,4 18 60 0,0
19.01.2017 13:00:00 -0,3 -6,3 4,5 3,9 7,4 2 1 11 6 WZW 1028,2 19 60 0,0
19.01.2017 12:00:00 -1,6 -6,7 3,5 3,9 7,4 4 2 9 5 ZZW 1028,8 19 58 0,0
19.01.2017 11:00:00 -2,6 -6,4 -3,6 3,9 7,4 5 3 9 5 ZZO 1029,3 18 24 0,0
19.01.2017 10:00:00 -5,0 -7,9 -6,6 4,0 7,4 3 2 10 6 OZO 1029,4 16 54 0,0
19.01.2017 09:00:00 -6,9 -8,6 -9,4 4,0 7,5 4 2 8 4 ZZO 1029,6 16 13 0,0
19.01.2017 08:00:00 -7,4 -9,3 -9,4 4,0 7,4 0 0 12 7 N 1029,3 15 0 0,0
19.01.2017 07:00:00 -6,5 -8,5 -9,6 4,0 7,4 9 5 13 7 ZZO 1028,7 19 0 0,0
19.01.2017 06:00:00 -6,3 -8,4 -8,2 4,1 7,5 4 2 11 6 ZZO 1028,6 19 0 0,0
19.01.2017 05:00:00 -4,9 -8,0 -5,5 4,1 7,5 8 4 11 6 Z 1028,4 20 0 0,0
19.01.2017 04:00:00 -4,4 -7,2 -4,7 4,1 7,5 3 2 9 5 ZO 1028,6 19 0 0,0
19.01.2017 03:00:00 -4,7 -7,1 -4,7 4,1 7,5 2 1 5 3 OZO 1029,1 18 0 0,0
19.01.2017 02:00:00 -4,8 -6,9 -5,0 4,2 7,5 3 2 6 4 ZZO 1028,9 17 0 0,0
19.01.2017 01:00:00 -5,1 -7,2 -6,0 4,2 7,4 3 1 5 3 OZO 1028,8 17 0 0,0
19.01.2017 00:00:00 -5,2 -7,3 -5,7 4,2 7,5 0 0 6 3 N 1028,9 16 0 0,0
18.01.2017 23:00:00 -4,9 -7,2 -5,1 4,3 7,5 3 1 6 4 OZO 1028,7 17 0 0,0
18.01.2017 22:00:00 -4,8 -6,9 -7,1 4,3 7,5 6 3 11 6 ZZO 1028,9 18 0 0,0
18.01.2017 21:00:00 -5,5 -7,6 -7,5 4,3 7,5 3 2 6 3 ZO 1029,1 13 0 0,0
18.01.2017 20:00:00 -5,2 -7,2 -7,5 4,3 7,5 2 1 4 2 ZZO 1028,9 13 0 0,0
18.01.2017 19:00:00 -4,3 -7,4 -6,8 4,3 7,5 0 0 6 3 N 1028,4 20 0 0,0
18.01.2017 18:00:00 -3,1 -7,4 -4,5 4,3 7,5 3 2 9 5 NW 1028,1 20 20 0,0
18.01.2017 17:00:00 -2,4 -8,1 -1,5 4,4 7,5 5 3 11 6 WNW 1027,6 20 14 0,0
18.01.2017 16:00:00 -2,1 -7,8 -0,8 4,4 7,5 5 3 11 6 N 1027,3 20 0 0,0
18.01.2017 15:00:00 -2,2 -7,7 -0,5 4,3 7,5 5 3 10 5 NW 1027,0 20 0 0,0
18.01.2017 14:00:00 -2,5 -8,0 -1,0 4,4 7,5 5 3 15 8 NNW 1027,4 20 0 0,0
18.01.2017 13:00:00 -2,7 -7,8 -1,7 4,4 7,5 9 5 16 9 NNW 1027,3 20 0 0,0
18.01.2017 12:00:00 -2,9 -7,4 -1,8 4,5 7,5 10 5 18 10 NW 1027,7 20 0 0,0
18.01.2017 11:00:00 -3,1 -6,9 -3,0 4,5 7,5 11 6 17 9 WNW 1027,9 20 0 0,0
18.01.2017 10:00:00 -3,6 -6,7 -3,6 4,5 7,5 10 5 14 8 W 1027,9 20 0 0,0
18.01.2017 09:00:00 -3,9 -6,4 -4,0 4,5 7,5 4 2 7 4 NW 1027,5 20 0 0,0
18.01.2017 08:00:00 -4,0 -6,6 -4,0 4,6 7,5 5 3 8 5 NNW 1027,0 20 0 0,0
18.01.2017 07:00:00 -4,0 -6,8 -3,9 4,6 7,5 4 2 13 7 NNW 1026,9 20 0 0,0
18.01.2017 06:00:00 -3,9 -6,8 -3,8 4,7 7,5 8 5 11 6 NNW 1026,8 20 0 0,0
18.01.2017 05:00:00 -3,6 -6,6 -5,5 4,7 7,5 6 4 13 7 NW 1026,7 20 0 0,0
18.01.2017 04:00:00 -3,4 -6,9 -3,9 4,8 7,5 6 4 18 10 NW 1027,0 20 0 0,0
18.01.2017 03:00:00 -3,1 -6,7 -4,2 4,8 7,5 10 5 24 13 WNW 1027,3 20 0 0,0
18.01.2017 02:00:00 -3,2 -7,2 -4,5 4,8 7,5 11 6 25 14 WNW 1027,1 20 0 0,0
18.01.2017 01:00:00 -2,4 -7,3 -3,2 4,8 7,5 16 8 27 15 NW 1027,1 20 0 0,0
18.01.2017 00:00:00 -1,8 -6,9 -2,1 4,9 7,5 14 7 23 12 NW 1027,2 20 0 0,0
17.01.2017 23:00:00 -1,6 -6,5 -2,8 4,9 7,5 13 7 21 11 WNW 1027,2 20 0 0,0
17.01.2017 22:00:00 -1,8 -6,2 -3,2 4,9 7,5 9 5 22 12 WNW 1027,3 20 0 0,0
17.01.2017 21:00:00 -0,9 -6,3 -1,6 5,0 7,5 10 5 25 13 W 1027,5 20 0 0,0
17.01.2017 20:00:00 -1,0 -6,2 -3,8 5,0 7,5 13 7 20 11 W 1027,7 7 0 0,0
17.01.2017 19:00:00 -1,8 -6,7 -3,9 5,0 7,5 6 4 23 12 W 1027,8 20 0 0,0
17.01.2017 18:00:00 -0,9 -6,3 -1,9 5,0 7,5 13 7 27 15 WNW 1027,4 20 0 0,0
17.01.2017 17:00:00 -0,8 -6,2 -1,2 5,0 7,5 14 8 33 18 WNW 1026,8 20 1 0,0
17.01.2017 16:00:00 -0,1 -5,9 0,1 5,0 7,5 14 8 35 19 WNW 1026,5 20 7 0,0
17.01.2017 15:00:00 -0,5 -6,5 0,3 5,0 7,5 23 12 36 19 WNW 1026,1 20 32 0,0
17.01.2017 14:00:00 0,6 -6,3 0,6 5,0 7,5 21 11 44 24 NW 1026,1 20 23 0,0
17.01.2017 13:00:00 0,5 -6,6 2,3 5,1 7,5 31 17 51 28 WNW 1026,1 20 60 0,0
17.01.2017 12:00:00 -0,4 -7,0 0,9 5,1 7,5 34 18 53 28 WNW 1025,9 20 60 0,0
17.01.2017 11:00:00 -1,2 -5,8 -0,8 5,2 7,5 24 13 41 22 WNW 1027,1 20 53 0,0
17.01.2017 10:00:00 -1,8 -5,3 -2,2 5,2 7,5 19 10 35 19 WNW 1027,6 20 10 0,0
17.01.2017 09:00:00 -2,0 -5,0 -3,0 5,3 7,5 15 8 23 12 NW 1027,5 20 0 0,0
17.01.2017 08:00:00 -2,1 -5,3 -3,7 5,4 7,5 13 7 29 16 WNW 1026,7 20 0 0,0
17.01.2017 07:00:00 -2,0 -4,8 -3,3 5,4 7,5 15 8 24 13 WNW 1026,3 20 0 0,0
17.01.2017 06:00:00 -2,1 -4,1 -3,0 5,4 7,5 13 7 24 13 WNW 1026,3 20 0 0,0
17.01.2017 05:00:00 -1,4 -3,8 -3,7 5,5 7,5 15 8 23 12 NW 1026,4 20 0 0,0
17.01.2017 04:00:00 -1,9 -4,1 -5,0 5,5 7,5 7 4 17 9 NNW 1026,7 20 0 0,0
17.01.2017 03:00:00 -0,8 -4,3 -1,9 5,5 7,5 11 6 18 10 NW 1026,6 20 0 0,0
17.01.2017 02:00:00 -0,2 -3,4 -1,5 5,6 7,5 7 4 14 8 NW 1026,1 20 0 0,0
17.01.2017 01:00:00 0,5 -3,8 0,1 5,6 7,5 11 6 21 11 NW 1025,9 20 0 0,0
17.01.2017 00:00:00 1,4 -1,0 1,2 5,6 7,5 11 6 25 13 WNW 1025,4 20 0 0,0
16.01.2017 23:00:00 2,4 0,0 2,1 5,6 7,5 17 9 29 16 NNW 1024,7 20 0 0,0
16.01.2017 22:00:00 3,3 1,5 2,9 5,6 7,5 16 9 33 18 NW 1024,4 20 0 0,0
16.01.2017 21:00:00 3,6 1,8 3,0 5,6 7,5 16 8 24 13 WNW 1024,5 20 0 0,0
16.01.2017 20:00:00 4,0 2,3 3,5 5,7 7,5 16 8 31 17 WNW 1024,3 20 0 0,0
16.01.2017 19:00:00 4,5 2,8 4,0 5,7 7,5 19 11 37 20 NW 1023,9 20 0 0,0
16.01.2017 18:00:00 5,1 3,8 4,8 5,7 7,6 21 11 36 19 NW 1023,3 20 0 0,0
16.01.2017 17:00:00 5,3 4,4 4,3 5,6 7,6 19 11 39 21 NW 1022,6 20 0 2,8
16.01.2017 16:00:00 4,9 4,0 3,3 5,6 7,6 21 11 40 22 NW 1022,5 7 0 7,1
16.01.2017 15:00:00 5,3 4,4 4,7 5,5 7,6 21 12 46 25 NW 1022,4 8 0 4,2
16.01.2017 14:00:00 6,1 4,7 5,6 5,4 7,6 24 13 45 24 WNW 1022,3 13 0 1,0
16.01.2017 13:00:00 6,2 4,7 5,4 5,3 7,6 27 14 47 26 WNW 1022,5 20 0 1,4
16.01.2017 12:00:00 6,1 4,7 5,5 5,3 7,6 23 12 45 25 NW 1022,8 10 0 0,6
16.01.2017 11:00:00 5,9 4,9 5,4 5,2 7,6 21 12 48 26 WNW 1022,9 7 0 1,9
16.01.2017 10:00:00 6,1 5,1 5,5 5,2 7,6 23 13 47 26 WNW 1022,8 4,9 0 1,4
16.01.2017 09:00:00 5,9 5,2 5,5 5,2 7,6 18 10 41 22 WNW 1022,4 7 0 1,2
16.01.2017 08:00:00 6,0 5,6 5,6 5,1 7,6 16 8 40 22 WNW 1022,0 2,8 0 2,0
16.01.2017 07:00:00 5,9 5,5 5,3 5,1 7,6 20 11 39 21 WNW 1022,0 3,9 0 2,6
16.01.2017 06:00:00 5,6 5,2 4,8 5,2 7,6 16 9 34 18 WNW 1021,8 3,4 0 1,0
16.01.2017 05:00:00 5,2 4,6 4,0 5,1 7,6 18 10 29 16 WNW 1022,1 7 0 2,7
16.01.2017 04:00:00 4,4 3,7 2,6 5,2 7,6 13 7 26 14 WNW 1022,5 6 0 2,2
16.01.2017 03:00:00 3,6 2,4 2,4 5,2 7,6 10 6 28 15 NW 1023,4 4,7 0 1,6
16.01.2017 02:00:00 3,0 1,8 2,2 5,2 7,6 11 6 23 12 WNW 1024,1 10 0 1,4
16.01.2017 01:00:00 2,7 1,5 2,1 5,2 7,6 10 5 24 13 NW 1025,0 14 0 0,8
16.01.2017 00:00:00 2,6 1,7 2,0 5,2 7,6 9 5 26 14 NW 1025,7 11 0 1,0
15.01.2017 23:00:00 2,5 1,5 2,0 5,2 7,7 11 6 28 15 WNW 1026,3 10 0 1,4
15.01.2017 22:00:00 2,6 1,7 2,2 5,2 7,6 12 7 31 17 WNW 1026,9 10 0 1,4
15.01.2017 21:00:00 2,9 2,0 1,9 5,2 7,7 15 8 25 13 WNW 1026,9 9 0 1,2
15.01.2017 20:00:00 2,4 1,7 2,0 5,2 7,7 2 1 12 7 NNW 1027,4 14 0 0,9
15.01.2017 19:00:00 2,4 1,7 2,0 5,2 7,6 9 5 21 11 NW 1027,6 11 0 1,2
15.01.2017 18:00:00 2,4 1,7 1,7 5,2 7,7 6 3 13 7 NW 1027,7 17 0 0,6

tt = temperatuur
td = dauwpunt
tt 5cm = temperatuur 5cm
tt -20cm = temperatuur -20cm
tt -100cm = temperatuur -100cm
ff = windsnelheid
fx = windstoten
dd = windrichting
ppp = luchtdruk
vv = zicht
sd = Zonneschijnduur
rr = neerslag

Weerstations in de omgeving